Simultaneous Nadir Overpasses (SNOs) Predictions

Prediction of SNOs between AQUA and METOP-B Satellite Orbit:

Table of predicted SNOs for the next 14.0 days since TLE Epoch: 9/5/2014
Index Date (AQUA) Time (AQUA) Lat,Lon (AQUA) SZA (AQUA ) Date (METOP-B) Time (METOP-B) Lat,Lon (METOP-B) SZA (METOP-B ) Distance(km) Time Diff (sec)
1 09/07/2014 15:24:54 -73.78, 123.14 112.19 09/07/2014 15:23:58 -73.77, 123.17 112.18 0.84 56
2 09/07/2014 16:14:23 73.85, -69.38 67.91 09/07/2014 16:14:36 73.84, -69.33 67.90 1.55 13
3 09/07/2014 17:03:58 -74.39, 97.02 111.51 09/07/2014 17:05:06 -74.39, 99.35 111.57 69.79 68
4 09/10/2014 10:59:08 -73.76,-170.38 111.15 09/10/2014 10:58:18 -73.77,-170.43 111.13 2.33 50
5 09/10/2014 11:48:37 73.83, -2.90 68.94 09/10/2014 11:48:56 73.84, -2.92 68.96 1.62 19
6 09/13/2014 06:33:23 -73.76,-103.95 110.08 09/13/2014 06:32:39 -73.76,-104.04 110.07 2.89 44
7 09/13/2014 07:22:52 73.84, 63.51 70.02 09/13/2014 07:23:17 73.84, 63.47 70.02 1.26 25
8 09/16/2014 02:07:38 -73.79, -37.57 108.98 09/16/2014 02:06:59 -73.80, -37.54 108.96 1.65 39
9 09/16/2014 02:57:07 73.87, 129.88 71.13 09/16/2014 02:57:37 73.88, 129.97 71.13 2.95 30
10 09/18/2014 21:41:51 -73.79, 28.87 107.89 09/18/2014 21:41:19 -73.78, 28.82 107.89 1.60 32
11 09/18/2014 22:31:20 73.88,-163.69 72.22 09/18/2014 22:31:57 73.86,-163.66 72.20 1.86 37




NCC Satellite Simultaneous Nadir Overpasses (SNOs) Prediction Service
